ראשי / חיפושים אחרונים

חיפושים אחרונים

לוחית
סוג רכב
דגם
שנה
תאריך חיפוש
שעת חיפוש
65217601 איסוזו יפן - 2020 01/09/2026 09:32:56
51000503 ב מ וו גרמניה 750E XDRIVE 2024 01/09/2026 09:32:49
7039353 אאודי גרמניה Q5 2015 01/09/2026 09:32:46
84142501 יונדאי קוריאה הדרומית IONIQ HYBRID 2019 01/09/2026 09:32:37
1158233 פיאט טורקיה DOBLO 1.3 COMBI 2015 01/09/2026 09:32:35
3616175 שברולט קוריאה הדרומית CRUZE 1.8 LT 2011 01/09/2026 09:32:30
7349714 סובארו יפן FORESTER 2006 01/09/2026 09:32:29
8508479 טויוטה יפן PRIUS HYBRID 2012 01/09/2026 09:32:29
7688911 מזדה יפן MAZDA 3 2014 01/09/2026 09:32:28
59556401 מזדה יפן CX-5 2019 01/09/2026 09:32:24
4233566 מיצובישי יפן LANCER 2008 01/09/2026 09:32:18
6476864 הונדה יפן CIVIC 2007 01/09/2026 09:32:14
51606702 שברולט ארהב" CAMARO 2022 01/09/2026 09:32:14
1369032 יונדאי קוריאה הדרומית I25 2015 01/09/2026 09:32:10
17719601 מרצדס גרמניה C300 2017 01/09/2026 09:32:07
3262252 קיה קוריאה הדרומית FORTE 2013 01/09/2026 09:32:05
47006801 ב מ וו גרמניה 530E 2018 01/09/2026 09:32:05
71603803 מיצובישי יפן OUTLANDER 2024 01/09/2026 09:32:05
79911801 מ א ן גרמניה - 2020 01/09/2026 09:32:03
21222503 סאן יאנג סין - 2022 01/09/2026 09:32:02
21222503 סאן יאנג סין - 2022 01/09/2026 09:32:02
55262903 קיה סלובקיה SPORTAGE 2023 01/09/2026 09:31:59
51000503 ב מ וו גרמניה 750E XDRIVE 2024 01/09/2026 09:31:57
1607862 טויוטה יפן LAND CRUISER 2007 01/09/2026 09:31:57
8221280 פיאט איטליה - 2017 01/09/2026 09:31:56
31408902 מ.ג סין EHS PHEV 2022 01/09/2026 09:31:53
79911401 מ א ן גרמניה - 2020 01/09/2026 09:31:53
68032701 רנו טורקיה CLIO 2019 01/09/2026 09:31:47
4697874 הינו יפן - 2012 01/09/2026 09:31:46
16822302 לקסוס יפן LEXUS UX200 2020 01/09/2026 09:31:45
16903503 קיה קוריאה הדרומית SORENTO 2022 01/09/2026 09:31:43
5979013 סוזוקי הונגריה SWIFT 2012 01/09/2026 09:31:42
64922801 פיג'ו צרפת 3008 2019 01/09/2026 09:31:38
21222503 סאן יאנג סין - 2022 01/09/2026 09:31:38
64922801 פיג'ו צרפת 3008 2019 01/09/2026 09:31:27
59556401 מזדה יפן CX-5 2019 01/09/2026 09:31:23
1192834 מרצדס גרמניה E400 2015 01/09/2026 09:31:22
14079403 סיטרואן פורטוגל BERLINGO 2022 01/09/2026 09:31:16
1151573 יונדאי צ'כיה I30 2010 01/09/2026 09:31:08
11532701 טויוטה טורקיה COROLLA 2017 01/09/2026 09:31:08
26062201 סקודה צ'כיה NEW OCTAVIA 2017 01/09/2026 09:31:07
47468802 איסוזו תאילנד D-MAX 2021 01/09/2026 09:31:02
21222503 סאן יאנג סין - 2022 01/09/2026 09:31:01
79416501 סיטרואן ספרד BERLINGO 2020 01/09/2026 09:30:53
3343239 שברולט ארהב" - 2017 01/09/2026 09:30:48
79416501 סיטרואן ספרד BERLINGO 2020 01/09/2026 09:30:45
9457755 פורד ארהב" - 1973 01/09/2026 09:30:39
9532315 מרצדס בנץ גרמנ - 1995 01/09/2026 09:30:34
25548503 מרצדס גרמניה GLC200 COUPE FL 2023 01/09/2026 09:30:27
5065630 טויוטה בריטניה AURIS HYBRID 2014 01/09/2026 09:30:26
89992201 טויוטה טורקיה C-HR HYBRID 2020 01/09/2026 09:30:25
4719861 מזדה יפן MAZDA 6 2007 01/09/2026 09:30:20
54777602 סיאט ספרד CUPRA 2021 01/09/2026 09:30:20
82774702 לקסוס יפן LEXUS UX250H 2022 01/09/2026 09:30:17
1917337 טויוטה טורקיה COROLLA 2016 01/09/2026 09:30:12
82812704 ג'אקו סין JAECOO 5 HEV 2026 01/09/2026 09:30:05
13989103 די אס גרמניה DS4 2022 01/09/2026 09:30:00
3014532 שברולט ארהב" - 2014 01/09/2026 09:30:00
6794376 סיאט ספרד LEON 2012 01/09/2026 09:29:59
3482952 קיה קוריאה הדרומית PICANTO 2013 01/09/2026 09:29:52
3326054 ניסאן בריטניה QASHQAI 2014 01/09/2026 09:29:52
32450204 אאודי גרמניה SQ6 E-TRON 2025 01/09/2026 09:29:51
70334601 קיה קוריאה הדרומית NIRO 2019 01/09/2026 09:29:39
4983934 אאודי גרמניה S3 2015 01/09/2026 09:29:38
13989103 די אס גרמניה DS4 2022 01/09/2026 09:29:38
8187139 מיצובישי תאילנד ATTRAGE 2016 01/09/2026 09:29:36
8156984 טויוטה בלגיה YARIS HYBRID 2016 01/09/2026 09:29:36
7860513 מ.ג סין MG350 2013 01/09/2026 09:29:27
6228057 הונדה יפן ACCORD 2005 01/09/2026 09:29:24
1091175 פיג'ו סלובקיה 207 2011 01/09/2026 09:29:20
59062103 צ'רי סין TIGGO 8 PRO 2023 01/09/2026 09:29:19
13989103 די אס גרמניה DS4 2022 01/09/2026 09:29:00
4161952 קיה קוריאה הדרומית RI0 2013 01/09/2026 09:29:00
21825303 טויוטה יפן LAND CRUISER 2022 01/09/2026 09:28:59
4968133 קיה קוריאה הדרומית RIO 2015 01/09/2026 09:28:50
54214701 יונדאי צ'כיה TUCSON 2019 01/09/2026 09:28:47
5161952 טויוטה יפן PRIUS HYBRID 2013 01/09/2026 09:28:46
5579561 סובארו יפן IMPREZA 2007 01/09/2026 09:28:40
37434403 שברולט ארהב" - 2024 01/09/2026 09:28:38
70334601 קיה קוריאה הדרומית NIRO 2019 01/09/2026 09:28:35
76581502 מיצובישי יפן ASX 2022 01/09/2026 09:28:35
8784812 קאדילאק ארהב" ATS 2013 01/09/2026 09:28:34
16822302 לקסוס יפן LEXUS UX200 2020 01/09/2026 09:28:31
8187139 מיצובישי תאילנד ATTRAGE 2016 01/09/2026 09:28:28
7107212 רנו טורקיה FLUENCE 2013 01/09/2026 09:28:28
8156984 טויוטה בלגיה YARIS HYBRID 2016 01/09/2026 09:28:26
86522401 סאן יאנג טיואן - 2019 01/09/2026 09:28:19
7131171 פורד בלגיה GALAXY 2011 01/09/2026 09:28:19
45753903 טויוטה טורקיה C-HR HYBRID 2023 01/09/2026 09:28:16
59062103 צ'רי סין TIGGO 8 PRO 2023 01/09/2026 09:28:15
18125603 סקודה צ'כיה KODIAQ FL 2022 01/09/2026 09:28:14
5024211 מיצובישי תאילנד SPACE STAR 2013 01/09/2026 09:28:09
4983934 אאודי גרמניה S3 2015 01/09/2026 09:28:08
81364203 סיאט ספרד ARONA 2024 01/09/2026 09:28:07
1121260 מיצובישי יפן LANCER 2006 01/09/2026 09:28:06
3913469 מזדה יפן MAZDA 3 2009 01/09/2026 09:28:04
1580371 סקודה צ'כיה YETI 2010 01/09/2026 09:28:02
63062501 אאודי סלובקיה Q7 E-TRON 2019 01/09/2026 09:28:00
1012437 טויוטה טורקיה COROLLA 2016 01/09/2026 09:27:59
21825303 טויוטה יפן LAND CRUISER 2022 01/09/2026 09:27:59
1613131 מיצובישי תאילנד SPACE STAR 2014 01/09/2026 09:27:58
49382001 סקודה צ'כיה SUPERB 2018 01/09/2026 09:27:54
8187139 מיצובישי תאילנד ATTRAGE 2016 01/09/2026 09:27:53
8187139 מיצובישי תאילנד ATTRAGE 2016 01/09/2026 09:27:53
7394801 פולריס - 1999 01/09/2026 09:27:53
1707367 פיאט איטליה PUNTO 1.4 2010 01/09/2026 09:27:49
17806003 הייגר סין - 2023 01/09/2026 09:27:48
6996938 קיה קוריאה הדרומית CARNIVAL 2016 01/09/2026 09:27:43
1905012 פולקסווגן ספרד POLO 2013 01/09/2026 09:27:43
4236338 פולקסווגן גרמניה TIGUAN 2016 01/09/2026 09:27:38
40769904 קיה קוריאה הדרומית PICANTO 2025 01/09/2026 09:27:38
84982202 מזדה יפן CX-5 2022 01/09/2026 09:27:37
8552172 ניסאן בריטניה JUKE 2011 01/09/2026 09:27:37
36455501 אודי מקסיקו SQ5 2018 01/09/2026 09:27:36
8187139 מיצובישי תאילנד ATTRAGE 2016 01/09/2026 09:27:36
29773201 ב מ וו בריטניה COOPER 2017 01/09/2026 09:27:36
37434403 שברולט ארהב" - 2024 01/09/2026 09:27:36
11977702 ניסאן בריטניה INFINITI QX30 2020 01/09/2026 09:27:35
1192579 איווקו איטליה - 2012 01/09/2026 09:27:35
6697239 יונדאי טורקיה I10 2016 01/09/2026 09:27:34
8604666 טויוטה יפן LAND CRUISER 2009 01/09/2026 09:27:34
1089571 פולקסווגן פולין CADDY KOMBI 2010 01/09/2026 09:27:34
2931338 אאודי גרמניה A3 2016 01/09/2026 09:27:33
2588085 קיה קוריאה הדרומית PICANTO 2016 01/09/2026 09:27:33
8187139 מיצובישי תאילנד ATTRAGE 2016 01/09/2026 09:27:32
3374338 פולקסווגן ספרד POLO 2016 01/09/2026 09:27:32
65765404 מיצובישי יפן OUTLANDER 2026 01/09/2026 09:27:32
50769904 צ'רי סין TIGGO7 PRO PHEV 2025 01/09/2026 09:27:27
8187139 מיצובישי תאילנד ATTRAGE 2016 01/09/2026 09:27:27
7002512 ניסאן הודו MICRA 2013 01/09/2026 09:27:24
5840475 מזדה יפן MAZDA 2 2012 01/09/2026 09:27:19
78622303 מרצדס בנץ גרמנ - 2024 01/09/2026 09:27:18
8565057 מיצובישי יפן LANCER 2005 01/09/2026 09:27:14
52163704 קיה קוריאה הדרומית PICANTO 2025 01/09/2026 09:27:08
43969201 פיג'ו איטליה BOXER 2018 01/09/2026 09:27:08
81364203 סיאט ספרד ARONA 2024 01/09/2026 09:27:06
7025933 דאף-הולנד - 2016 01/09/2026 09:27:06
47393803 ימהה יפן - 2023 01/09/2026 09:27:05
36474801 סיאט ספרד IBIZA 2018 01/09/2026 09:27:05
6500162 טויוטה יפן LAND CRUISER 2007 01/09/2026 09:27:05
4930153 סיאט ספרד LEON 2014 01/09/2026 09:27:04
7397784 דאציה מרוקו DOKKER 2017 01/09/2026 09:26:58
69400003 דאף אנגליה - 2024 01/09/2026 09:26:57
8187139 מיצובישי תאילנד ATTRAGE 2016 01/09/2026 09:26:52
6016028 סוזוקי יפן BALENO 1999 01/09/2026 09:26:50
23292002 וולבו שבדיה - 2021 01/09/2026 09:26:49
9244475 מרצדס גרמניה S350 2010 01/09/2026 09:26:48
1308367 פיאט איטליה BRAVO 1.4 2009 01/09/2026 09:26:47
8988661 שברולט ד.קוריא EPICA LT 2007 01/09/2026 09:26:45
36455501 אודי מקסיקו SQ5 2018 01/09/2026 09:26:44
1905012 פולקסווגן ספרד POLO 2013 01/09/2026 09:26:41
7338952 וולבו שבדיה - 2016 01/09/2026 09:26:37
8974753 סוזוקי הונגריה SPLASH 2013 01/09/2026 09:26:37
74803803 טויוטה יפן TOYOTA BZ4X 2024 01/09/2026 09:26:36
18281803 מ.ג סין MARVEL R 2022 01/09/2026 09:26:35
43658801 סיטרואן ספרד BERLINGO 2018 01/09/2026 09:26:35
46973402 ניסאן בריטניה QASHQAI 2021 01/09/2026 09:26:33
13858103 אופל ספרד CORSA 2022 01/09/2026 09:26:32
7295655 יונדאי קוריאה הדרומית ELANTRA 2017 01/09/2026 09:26:32
4761278 פיג'ו צ'כיה 107 2011 01/09/2026 09:26:32
46429602 יונדאי טורקיה I20 2021 01/09/2026 09:26:25
7541562 מזדה יפן MAZDA 3 2007 01/09/2026 09:26:24
4184784 רנו צרפת KANGOO 2017 01/09/2026 09:26:23
55828001 יונדאי קוריאה הדרומית IONIQ HYBRID 2019 01/09/2026 09:26:21
5765459 יונדאי קוריאה הדרומית TUCSON 2005 01/09/2026 09:26:20
67996701 ניסאן הודו MICRA 2019 01/09/2026 09:26:18
7226612 רנו טורקיה FLUENCE 2013 01/09/2026 09:26:12
50065103 פולקסווגן פולי - 2023 01/09/2026 09:26:12
9185179 מרכבי נוע בעמ - 2016 01/09/2026 09:26:08
73264001 יונדאי קוריאה הדרומית IONIQ HYBRID 2019 01/09/2026 09:26:06
6659376 פולקסווגן פולין CADDY GP 2012 01/09/2026 09:26:04
30796603 הונדה איטליה - 2023 01/09/2026 09:26:04
65752603 סוזוקי יפן SWIFT 2024 01/09/2026 09:26:04
30303301 ב מ וו אוסטריה 540I 2018 01/09/2026 09:26:03
93093101 רנו טורקיה MEGANE 2019 01/09/2026 09:26:03
21673504 טויוטה תאילנד HILUX 2025 01/09/2026 09:26:02
36474801 סיאט ספרד IBIZA 2018 01/09/2026 09:26:01
86071801 דאצ'יה רומניה DUSTER 2019 01/09/2026 09:26:01
4235459 סובארו יפן XV 2014 01/09/2026 09:25:52
11977702 ניסאן בריטניה INFINITI QX30 2020 01/09/2026 09:25:50
2549973 יונדאי צ'כיה I30 2010 01/09/2026 09:25:49
2746384 רנו טורקיה CLIO 2017 01/09/2026 09:25:48
9254565 מזדה יפן MAZDA 6 2008 01/09/2026 09:25:47
4711214 פורד ספרד FOCUS 2006 01/09/2026 09:25:47
9916734 לקסוס יפן LEXUS NX300H 2016 01/09/2026 09:25:46
77364603 מזדה יפן MAZDA CX-5 2024 01/09/2026 09:25:45
45736604 סיטרואן ספרד BERLINGO 2026 01/09/2026 09:25:41
6713573 פולקסווגן פולין CADDY MAXI 2011 01/09/2026 09:25:40
1032578 ב מ וו גרמניה 118I 2012 01/09/2026 09:25:39
8818520 מיצובישי תאילנד L 200 1999 01/09/2026 09:25:39
45736604 סיטרואן ספרד BERLINGO 2026 01/09/2026 09:25:39
8808309 טויוטה תאילנד HILUX 2017 01/09/2026 09:25:38
1029233 פיאט פולין FIAT 500 1.2 2015 01/09/2026 09:25:37
49606904 צ'רי סין FX HEV 2025 01/09/2026 09:25:36
9765439 מיצובישי יפן OUTLANDER 2017 01/09/2026 09:25:36
60989603 פולקסווגן פולי - 2024 01/09/2026 09:25:36
5439370 שברולט קוריאה הדרומית CAPTIVA 2009 01/09/2026 09:25:35
5439370 שברולט קוריאה הדרומית CAPTIVA 2009 01/09/2026 09:25:35
81915002 קיה קוריאה הדרומית PICANTO 2022 01/09/2026 09:25:35
50977302 קיה קוריאה הדרומית NIRO PHEV 2021 01/09/2026 09:25:34
וואטסאפ